• In Hungary
  • List of Countries
  • For 7 days
  • Water Temperature
  • Satellite Maps
  • Weather Map
  • News
  • Weather Widgets
  • user-avatar
    Login

    Hourly Weather Abomey

    Today, 16 December, Saturday

    Time Temperature Precipitation Wind Pressure Humidity
    00:00 +28°C° 0 mm 2 mps 738 mmHg 76%
    01:00 +27°C° 0 mm 2 mps 738 mmHg 78%
    02:00 +27°C° 0 mm 1 mps 738 mmHg 79%
    03:00 +27°C° 0 mm 1 mps 737 mmHg 80%
    04:00 +26°C° 0 mm 1 mps 738 mmHg 82%
    05:00 +26°C° 0 mm 1 mps 738 mmHg 83%
    06:00 +26°C° 0 mm 1 mps 738 mmHg 85%
    07:00 +28°C° 0 mm 1 mps 738 mmHg 75%
    08:00 +30°C° 0 mm 1 mps 739 mmHg 65%
    09:00 +32°C° 0 mm 2 mps 739 mmHg 55%
    10:00 +34°C° 0 mm 1 mps 739 mmHg 46%
    11:00 +37°C° 0 mm 1 mps 739 mmHg 38%
    12:00 +38°C° 0 mm 0 mps 739 mmHg 29%
    13:00 +40°C° 0 mm 1 mps 738 mmHg 28%
    14:00 +39°C° 0 mm 1 mps 737 mmHg 27%
    15:00 +37°C° 0 mm 1 mps 737 mmHg 27%
    16:00 +36°C° 0 mm 1 mps 737 mmHg 30%
    17:00 +35°C° 0 mm 1 mps 737 mmHg 32%
    18:00 +35°C° 0 mm 2 mps 737 mmHg 35%
    19:00 +34°C° 0 mm 2 mps 737 mmHg 43%
    20:00 +32°C° 0 mm 2 mps 738 mmHg 50%
    21:00 +30°C° 0 mm 3 mps 738 mmHg 57%
    22:00 +30°C° 0 mm 3 mps 738 mmHg 62%
    23:00 +29°C° 0 mm 3 mps 738 mmHg 66%

    Tomorrow, 17 December, Sunday

    Time Temperature Precipitation Wind Pressure Humidity
    00:00 +28°C° 0 mm 3 mps 738 mmHg 71%
    01:00 +28°C° 0 mm 2 mps 738 mmHg 72%
    02:00 +28°C° 0 mm 2 mps 738 mmHg 74%
    03:00 +27°C° 0 mm 2 mps 737 mmHg 75%
    04:00 +27°C° 0 mm 2 mps 738 mmHg 77%
    05:00 +27°C° 0 mm 2 mps 738 mmHg 79%
    06:00 +27°C° 0 mm 2 mps 738 mmHg 81%
    07:00 +28°C° 0 mm 2 mps 738 mmHg 73%
    08:00 +30°C° 0 mm 2 mps 739 mmHg 65%
    09:00 +33°C° 0 mm 3 mps 739 mmHg 58%
    10:00 +35°C° 0 mm 2 mps 739 mmHg 48%
    11:00 +37°C° 0 mm 1 mps 739 mmHg 39%
    12:00 +40°C° 0 mm 1 mps 738 mmHg 29%
    13:00 +40°C° 0 mm 1 mps 738 mmHg 28%
    14:00 +40°C° 0 mm 1 mps 737 mmHg 27%
    15:00 +40°C° 0 mm 1 mps 736 mmHg 25%
    16:00 +38°C° 0 mm 2 mps 736 mmHg 34%
    17:00 +36°C° 0 mm 3 mps 737 mmHg 42%
    18:00 +34°C° 0 mm 3 mps 737 mmHg 51%
    19:00 +33°C° 0 mm 3 mps 737 mmHg 59%
    20:00 +30°C° 0 mm 3 mps 738 mmHg 66%
    21:00 +29°C° 0 mm 4 mps 738 mmHg 74%
    22:00 +29°C° 0 mm 3 mps 738 mmHg 75%
    23:00 +29°C° 0 mm 3 mps 738 mmHg 76%

    Day after tomorrow, 18 December, Monday

    Time Temperature Precipitation Wind Pressure Humidity
    00:00 +28°C° 0 mm 3 mps 738 mmHg 76%
    01:00 +28°C° 0 mm 3 mps 738 mmHg 78%
    02:00 +28°C° 0 mm 3 mps 738 mmHg 79%
    03:00 +28°C° 0 mm 3 mps 737 mmHg 80%
    04:00 +27°C° 0 mm 3 mps 738 mmHg 81%
    05:00 +27°C° 0 mm 2 mps 738 mmHg 82%
    06:00 +27°C° 0 mm 2 mps 738 mmHg 83%
    07:00 +28°C° 0 mm 2 mps 738 mmHg 77%
    08:00 +29°C° 0 mm 2 mps 739 mmHg 71%
    09:00 +30°C° 0 mm 3 mps 739 mmHg 66%
    10:00 +33°C° 0 mm 3 mps 739 mmHg 58%
    11:00 +35°C° 0 mm 3 mps 739 mmHg 51%
    12:00 +37°C° 0 mm 3 mps 738 mmHg 44%
    13:00 +37°C° 0.1 mm 3 mps 737 mmHg 43%
    14:00 +37°C° 0.1 mm 3 mps 737 mmHg 42%
    15:00 +37°C° 0.1 mm 3 mps 736 mmHg 41%
    16:00 +35°C° 0.1 mm 3 mps 736 mmHg 48%
    17:00 +34°C° 0.1 mm 4 mps 736 mmHg 55%
    18:00 +32°C° 0.1 mm 4 mps 736 mmHg 62%
    19:00 +30°C° 0 mm 4 mps 737 mmHg 66%
    20:00 +30°C° 0 mm 3 mps 738 mmHg 69%
    21:00 +29°C° 0 mm 3 mps 738 mmHg 73%
    22:00 +28°C° 0.1 mm 3 mps 738 mmHg 75%
    23:00 +28°C° 0.1 mm 3 mps 738 mmHg 77%

    19 December, Tuesday

    Time Temperature Precipitation Wind Pressure Humidity
    00:00 +28°C° 0.1 mm 3 mps 738 mmHg 79%
    01:00 +27°C° 0 mm 3 mps 737 mmHg 80%
    02:00 +27°C° 0 mm 3 mps 737 mmHg 81%
    03:00 +27°C° 0 mm 3 mps 737 mmHg 82%
    04:00 +27°C° 0.1 mm 2 mps 737 mmHg 83%
    05:00 +26°C° 0.1 mm 1 mps 737 mmHg 85%
    06:00 +26°C° 0.1 mm 1 mps 738 mmHg 86%
    07:00 +28°C° 0.2 mm 2 mps 738 mmHg 78%
    08:00 +29°C° 0.2 mm 2 mps 739 mmHg 71%
    09:00 +31°C° 0.2 mm 3 mps 739 mmHg 63%
    10:00 +34°C° 0 mm 3 mps 739 mmHg 56%
    11:00 +35°C° 0 mm 3 mps 738 mmHg 50%
    12:00 +37°C° 0 mm 3 mps 738 mmHg 43%
    13:00 +36°C° 0 mm 3 mps 737 mmHg 44%
    14:00 +36°C° 0 mm 3 mps 736 mmHg 44%
    15:00 +36°C° 0 mm 3 mps 736 mmHg 45%
    16:00 +34°C° 0.8 mm 3 mps 736 mmHg 51%
    17:00 +33°C° 0.8 mm 4 mps 736 mmHg 57%
    18:00 +32°C° 0.8 mm 4 mps 737 mmHg 62%
    19:00 +30°C° 2.3 mm 4 mps 737 mmHg 67%
    20:00 +29°C° 2.3 mm 3 mps 738 mmHg 71%
    21:00 +28°C° 2.3 mm 3 mps 738 mmHg 75%
    22:00 +28°C° 2 mm 3 mps 738 mmHg 76%
    23:00 +28°C° 2 mm 3 mps 738 mmHg 77%

    20 December, Wednesday

    Time Temperature Precipitation Wind Pressure Humidity
    00:00 +27°C° 2 mm 3 mps 738 mmHg 78%
    01:00 +27°C° 0.1 mm 3 mps 737 mmHg 79%
    02:00 +27°C° 0.1 mm 3 mps 737 mmHg 79%
    03:00 +27°C° 0.1 mm 3 mps 737 mmHg 80%
    04:00 +27°C° 0 mm 2 mps 737 mmHg 80%
    05:00 +27°C° 0 mm 2 mps 737 mmHg 81%
    06:00 +27°C° 0 mm 2 mps 738 mmHg 82%
    07:00 +27°C° 0 mm 2 mps 738 mmHg 79%
    08:00 +28°C° 0 mm 1 mps 739 mmHg 76%
    09:00 +28°C° 0 mm 1 mps 739 mmHg 73%
    10:00 +30°C° 0 mm 2 mps 739 mmHg 67%
    11:00 +31°C° 0 mm 3 mps 738 mmHg 60%
    12:00 +34°C° 0 mm 3 mps 738 mmHg 54%
    13:00 +34°C° 0 mm 3 mps 737 mmHg 51%
    14:00 +35°C° 0 mm 3 mps 737 mmHg 49%
    15:00 +35°C° 0 mm 3 mps 736 mmHg 47%
    16:00 +34°C° 0 mm 3 mps 736 mmHg 51%
    17:00 +33°C° 0 mm 3 mps 737 mmHg 55%
    18:00 +31°C° 0 mm 3 mps 737 mmHg 59%
    19:00 +30°C° 0 mm 3 mps 737 mmHg 63%
    20:00 +29°C° 0 mm 3 mps 738 mmHg 67%
    21:00 +29°C° 0 mm 3 mps 738 mmHg 71%
    22:00 +28°C° 0.1 mm 3 mps 738 mmHg 74%
    23:00 +28°C° 0.1 mm 3 mps 738 mmHg 76%

    21 December, Thursday

    Time Temperature Precipitation Wind Pressure Humidity
    00:00 +27°C° 0.1 mm 3 mps 738 mmHg 79%
    01:00 +27°C° 0 mm 2 mps 738 mmHg 80%
    02:00 +27°C° 0 mm 2 mps 737 mmHg 82%
    03:00 +26°C° 0 mm 2 mps 737 mmHg 83%
    04:00 +26°C° 0 mm 2 mps 737 mmHg 85%
    05:00 +26°C° 0 mm 1 mps 738 mmHg 86%
    06:00 +26°C° 0 mm 1 mps 738 mmHg 87%
    07:00 +27°C° 0 mm 2 mps 738 mmHg 79%
    08:00 +29°C° 0 mm 2 mps 739 mmHg 72%
    09:00 +31°C° 0 mm 2 mps 739 mmHg 64%
    10:00 +34°C° 0 mm 2 mps 739 mmHg 57%
    11:00 +35°C° 0 mm 2 mps 739 mmHg 50%
    12:00 +36°C° 0 mm 1 mps 738 mmHg 42%
    13:00 +37°C° 0.2 mm 2 mps 738 mmHg 43%
    14:00 +36°C° 0.2 mm 2 mps 737 mmHg 44%
    15:00 +36°C° 0.2 mm 2 mps 736 mmHg 44%
    16:00 +35°C° 0 mm 3 mps 737 mmHg 50%
    17:00 +33°C° 0 mm 3 mps 737 mmHg 56%
    18:00 +31°C° 0 mm 3 mps 737 mmHg 61%
    19:00 +30°C° 0 mm 3 mps 738 mmHg 65%
    20:00 +30°C° 0 mm 3 mps 738 mmHg 69%
    21:00 +29°C° 0 mm 3 mps 738 mmHg 73%
    22:00 +28°C° 0 mm 3 mps 738 mmHg 75%
    23:00 +28°C° 0 mm 3 mps 738 mmHg 77%
    Show more